Location: Gorze? G�rny
(49.8500°N, 19.5000°E)
Time: 09:54:33
(UTC+00:00)

Cosmos 1674 Rocket - Pass Details

Date: 28 September 2021
Orbit: 601 x 631 km, 82.5° (Epoch: 15 October)

Event Time Altitude Azimuth Distance (km) Brightness Sun altitude
Rises 17:45:19 0° 338° (NNW) 2,878 7.5 -13.4°
Reaches altitude 10° 17:47:57 10° 323° (NW) 1,964 6.9 -13.8°
Maximum altitude 17:51:13 21° 274° (W) 1,363 6.3 -14.4°
Drops below altitude 10° 17:54:28 10° 224° (SW) 1,945 6.5 -14.9°
Sets 17:57:04 0° 209° (SSW) 2,842 7.1 -15.3°
